Weather in Yerakhtur

Russia / Ryazan Oblast     54°42′17″N   41°08′15″E
temp.,
°C
wind,
m/s
gust,
m/s
humid.,
%
clouds,
%
prec.,
mm/h
press.,
hPa
HPBL,
m
27 february, sat
sat2700:00+1w6149190 0.0 1000781
03:00+1w6139795 0.1 1000797
06:00+1w71398100 0.1 998853
09:00−7nnw81286100 0.8 1001745
12:00−9nnw61087100 0.1 1004747
15:00−8nnw6987100 0.2 1008703
18:00−10nnw3992100 0.0 1010470
21:00−13nnw379696 0.1 1012169
28 february, sun
sun2800:00−14nw349772 0.0 101382
03:00−15nw239749 0.0 101473
06:00−15nw239745 0.0 101556
09:00−12nw249461 0.1 1015226
12:00−8nw248993 0.0 1015422
15:00−6nnw248997 0.1 1016531
18:00−7n2394100 0.1 1016100
21:00−7n1296100 0.1 101964
1 march, mon
mon100:00−11ene129698 0.0 102021
03:00−13n119791 0.1 102221
06:00−13nw129773 0.0 102320
09:00−10wsw119581 0.1 102462
12:00−5w238863 0.0 1024338
15:00−3sw459276 0.0 1023467
18:00−3wsw4894100 0.1 1021497
21:00−2sw51195100 0.1 1018465
2 march, tue
tue200:00−1sw61294100 0.1 1015562
03:000w61198100 1.4 1011668
06:000w61298100 0.2 1008679
09:00+1nw61298100 0.8 1008833
12:000nw61195100 0.3 1008968
15:00+1nw6118989 0.4 10091077
18:00−1nw4128897 0.1 1009547
21:00−2nw6139186 0.1 1010764
3 march, wed
wed300:00−4nw4129489 0.0 1010475
03:00−3nw5109590 0.1 1011755
06:00−4nw4119498 0.1 1012533
09:00−4nw5129295 0.1 1014552
12:00−3nw61088100 0.1 1015888
15:00−1nw6985100 0.2 1015972
18:00−2wnw41091100 0.1 1015616
21:00−4wnw499589 0.1 1017284